Theta_e
308 308 308 309 309 309 310 310 310 311 311 310 309 311 312 312 312 311 310 309 309 311 311 308 303 299 296 295 294 294 294 294 295 295 296 296 296 296 297 297 297 296 296 295 295 295 294 294 294 293 292 291 291 290 290 289 289 288 288 287 287 287 287 287 287 287 287 287 286 286 286 286 286 285 285 285 285 285 284 284 284 284 284 284 284
309 308 308 308 309 310 310 310 309 309 310 309 310 311 312 312 311 309 309 309 310 311 310 305 301 297 295 295 294 294 294 294 294 295 295 296 296 296 296 296 296 296 296 295 294 294 294 293 293 292 291 291 290 290 290 289 289 288 288 287 287 287 287 287 287 287 287 287 286 286 286 286 286 286 285 285 285 285 285 284 284 284 284 284 284
309 308 308 308 309 310 310 310 309 310 310 310 310 311 311 311 310 308 308 309 310 310 308 303 299 296 295 294 294 294 294 294 294 295 295 295 296 296 296 296 295 295 295 294 294 293 293 292 292 291 291 290 290 290 290 289 289 288 288 287 287 287 287 287 287 287 287 287 286 286 286 286 286 286 286 286 285 285 285 285 284 284 284 284 284
309 308 308 308 309 309 310 310 309 309 310 310 309 310 310 309 308 307 308 310 310 309 306 300 297 295 294 294 294 293 294 294 294 294 294 295 295 295 295 295 295 295 294 293 292 292 292 291 291 291 290 290 290 290 290 289 289 288 288 287 287 287 287 287 287 286 286 286 287 286 286 286 286 286 286 286 285 285 285 285 285 285 285 284 284
309 308 308 308 308 309 309 309 308 308 309 311 310 310 309 308 307 308 309 310 310 308 304 298 296 295 294 294 294 293 293 293 294 294 294 294 294 294 294 294 294 294 293 292 292 291 291 291 291 290 290 290 290 289 289 289 289 289 288 288 287 287 287 287 287 287 286 286 286 286 286 286 286 286 286 285 286 285 285 285 285 285 285 284 284
309 308 308 308 308 309 309 309 307 306 308 310 311 310 310 309 308 309 309 309 310 308 302 297 295 294 294 294 293 293 293 293 293 293 294 294 293 293 293 293 293 292 292 291 291 291 291 290 290 290 290 290 289 289 289 289 289 288 288 288 287 287 287 287 287 287 286 286 286 286 286 286 286 286 286 285 285 286 285 285 285 285 285 284 284
308 308 307 307 308 308 308 309 308 306 307 308 309 310 310 309 309 310 310 309 309 307 301 296 294 294 294 293 293 293 293 293 293 293 293 293 293 293 293 293 292 292 291 291 291 291 291 290 291 290 290 290 290 289 289 289 289 288 288 287 287 287 287 287 287 287 287 286 286 286 286 286 286 286 286 285 285 285 285 285 285 285 285 284 284
308 308 307 307 307 308 308 308 308 307 306 306 308 309 309 310 310 310 309 308 307 306 301 295 294 294 293 293 293 293 293 293 292 292 292 292 292 292 292 292 292 291 291 291 291 290 290 291 290 290 290 290 290 289 289 289 288 288 288 287 287 286 286 287 287 287 287 286 286 286 286 286 286 286 286 285 285 285 285 285 285 285 285 285 285
308 307 307 307 307 307 307 308 307 307 306 306 307 308 309 310 310 309 309 307 305 304 300 295 293 293 293 293 293 292 292 292 292 292 292 292 292 292 292 291 291 291 291 291 290 290 290 290 290 290 291 291 290 289 289 288 288 288 287 287 286 286 286 286 286 286 286 286 286 286 286 286 286 286 286 285 285 285 285 285 285 285 285 285 285
308 308 307 307 306 306 307 307 307 307 306 306 306 308 309 309 309 309 308 305 303 303 300 295 292 292 292 292 292 292 292 292 292 292 291 292 292 291 291 291 291 291 291 290 290 290 290 290 290 290 290 290 290 289 289 288 288 288 287 287 286 286 285 285 286 286 286 286 286 286 286 286 286 286 286 285 285 285 285 285 285 285 285 285 285
309 308 308 307 306 306 306 306 306 306 306 306 306 308 309 309 309 308 306 304 302 301 299 295 292 292 292 292 292 292 292 291 291 291 292 292 292 290 290 291 291 290 290 290 290 291 290 290 289 289 289 290 289 289 289 289 289 288 288 287 286 286 286 286 285 285 285 286 286 286 286 286 286 286 286 285 285 285 285 285 285 285 284 284 285
309 308 307 306 306 305 305 305 305 305 306 305 306 307 308 309 309 308 305 303 301 300 299 295 292 291 291 291 291 291 291 291 291 291 292 292 290 290 291 291 291 290 289 290 291 292 291 289 289 289 289 289 289 288 288 288 289 288 288 287 286 286 286 286 286 286 285 285 285 286 286 286 286 286 286 285 285 285 285 285 284 284 284 284 284
309 308 307 306 305 305 304 304 305 305 305 305 306 307 308 308 308 308 305 302 300 300 298 296 293 291 291 291 291 291 291 290 290 291 292 290 289 290 291 291 290 289 290 291 292 292 290 289 289 289 289 289 288 288 288 288 288 288 288 287 287 287 286 286 286 286 286 285 285 285 286 286 286 286 285 285 285 285 284 284 284 284 284 284 284
308 307 306 305 304 304 304 303 304 304 305 305 305 306 307 308 308 307 306 302 300 299 298 296 293 292 291 291 291 290 290 290 290 291 290 289 290 292 291 289 289 289 291 292 292 291 290 289 289 289 289 289 288 288 288 288 288 288 288 287 287 287 287 286 286 286 286 286 285 286 285 285 285 285 285 285 284 284 284 284 283 283 283 283 284
308 306 305 304 304 303 303 302 303 303 304 305 305 306 307 307 307 307 306 304 301 298 297 296 294 292 291 291 291 290 290 289 290 289 288 289 292 293 290 288 289 291 292 292 291 290 290 289 289 289 289 288 288 288 288 288 288 288 288 287 287 287 287 286 286 286 286 286 286 286 285 285 285 285 285 284 284 284 284 283 283 283 283 283 283
306 305 304 304 303 302 302 301 302 302 302 303 305 306 306 307 307 306 305 304 302 299 296 295 293 292 291 291 290 290 289 289 289 288 288 291 293 291 289 288 290 292 292 292 291 290 289 289 289 289 289 288 288 288 287 287 287 288 287 287 287 287 287 286 286 286 286 286 285 285 285 285 285 284 284 284 284 284 283 282 282 282 282 282 283
305 304 303 303 302 301 301 300 300 301 301 302 303 305 305 306 306 305 304 303 302 300 297 295 293 292 290 290 289 289 289 289 288 288 290 293 293 290 289 290 291 292 292 291 291 290 289 289 289 288 288 288 288 287 287 287 287 287 287 287 287 287 287 286 286 286 286 285 285 285 285 284 284 284 283 283 283 283 282 282 282 282 281 281 282
304 303 302 301 300 300 299 299 299 300 300 301 302 303 304 304 305 304 302 302 301 300 298 296 294 291 289 289 289 289 289 288 288 290 293 294 293 290 290 291 292 292 292 291 290 289 289 288 288 288 288 288 287 287 287 287 287 287 287 287 286 286 286 286 286 286 285 285 285 285 284 284 284 283 283 283 282 281 281 282 282 281 280 280 280
302 301 300 299 299 298 298 298 298 298 299 299 300 301 302 303 302 302 300 299 298 297 296 295 292 290 289 289 288 288 287 287 289 293 295 294 292 291 291 292 292 292 291 290 289 288 288 287 287 287 287 287 287 287 287 287 287 286 286 286 286 286 286 286 286 285 285 285 285 284 284 284 283 283 283 282 281 280 280 280 280 279 279 279 278
300 299 299 298 298 297 297 297 297 298 298 299 299 300 300 300 299 298 297 296 295 294 292 291 290 289 288 287 287 286 287 289 292 295 295 293 292 291 292 292 292 291 290 289 288 287 286 286 286 286 286 286 287 287 286 286 286 286 286 285 285 286 286 285 285 284 284 284 284 284 284 283 283 282 282 282 281 280 279 279 279 279 278 278 277
300 299 298 298 298 298 298 298 298 298 298 298 298 298 297 297 296 295 294 293 293 292 291 289 289 288 288 288 288 289 290 292 294 295 294 293 292 292 292 291 290 289 288 287 286 286 285 285 285 285 285 285 285 285 285 285 285 284 284 284 285 285 284 284 284 284 283 284 284 284 284 284 283 282 281 281 280 280 279 279 279 279 278 277 277
299 299 298 298 298 298 298 297 297 297 297 296 296 295 295 294 294 294 294 294 293 293 293 293 293 293 293 293 293 294 294 295 295 294 293 292 291 291 290 289 288 287 286 286 285 285 285 285 285 284 284 284 284 284 284 284 284 283 284 284 284 283 283 283 283 283 283 283 283 283 283 283 282 281 281 280 279 279 279 279 278 278 278 277 276
299 298 298 298 297 297 297 296 296 296 295 295 295 295 295 295 296 296 296 297 297 297 297 297 297 297 297 297 297 296 296 295 294 293 291 290 289 288 287 286 286 285 285 285 285 285 285 285 284 284 284 284 284 285 285 284 284 284 284 283 283 282 282 281 281 281 281 281 281 281 281 281 280 280 280 279 279 279 279 278 278 277 277 277 276
299 299 298 297 297 297 297 296 297 297 297 298 298 298 298 298 298 298 298 298 298 298 298 298 298 298 297 297 296 295 294 293 291 290 289 288 287 286 286 286 285 285 285 285 285 285 285 285 285 285 285 285 286 286 286 285 285 284 284 283 282 281 281 281 281 280 280 280 280 280 279 279 279 279 279 279 279 279 278 278 278 277 277 276 276
301 301 300 299 299 299 299 299 299 299 299 299 298 298 298 298 297 298 298 298 298 298 298 297 297 296 295 295 294 293 292 290 289 289 288 287 286 286 286 286 286 286 286 286 286 286 286 286 286 286 287 287 287 286 286 286 285 283 282 281 280 280 280 280 279 279 279 279 279 278 278 278 278 278 278 278 278 278 278 277 277 277 276 276 275
301 301 300 300 300 299 299 299 299 299 298 298 298 298 297 297 297 297 297 297 297 297 296 296 295 294 294 293 292 291 290 289 289 288 288 288 287 287 287 287 287 287 287 287 287 287 287 287 287 287 287 287 286 286 285 285 284 282 281 280 279 279 278 278 278 278 277 277 277 277 277 277 277 277 277 277 277 277 277 277 276 276 276 275 275
299 299 299 299 299 298 298 298 298 298 298 298 297 297 297 297 297 297 296 296 295 295 294 293 293 292 291 291 290 290 290 290 289 289 289 289 289 289 289 288 288 288 288 288 288 287 287 287 286 286 286 285 285 284 283 283 282 281 280 279 279 278 278 277 277 276 277 277 277 276 276 276 276 276 276 276 276 276 276 276 276 275 275 275 274
299 298 298 298 298 298 298 298 297 297 297 297 296 296 296 295 295 294 294 293 292 292 291 291 290 290 290 290 290 289 289 289 289 289 289 289 289 289 288 288 288 288 287 287 287 286 286 286 285 285 284 284 283 282 282 281 281 280 280 279 279 278 278 277 276 276 276 276 276 276 276 276 276 276 275 275 275 275 275 275 275 275 274 274 274
298 298 298 298 298 297 297 297 296 296 296 295 294 294 293 293 292 291 291 291 290 290 290 290 290 289 289 289 289 289 289 289 289 289 289 289 289 288 288 288 288 288 287 287 286 286 285 285 285 284 284 283 283 282 282 281 281 281 280 279 278 278 277 276 276 276 276 275 275 275 275 275 275 275 275 275 275 275 274 274 274 274 274 273 273
297 297 297 297 296 296 295 295 294 293 293 292 292 291 291 290 290 290 290 290 289 289 289 289 289 289 289 289 289 289 289 289 289 289 289 289 289 289 288 288 288 287 287 287 286 286 286 285 285 285 284 284 283 283 282 281 281 280 279 277 277 276 275 275 275 275 275 275 275 274 274 274 274 274 274 274 274 274 274 274 273 273 273 273 273
295 295 294 294 294 293 292 292 291 291 290 290 290 290 290 290 290 289 289 289 289 289 289 289 289 289 290 290 290 290 289 289 289 289 289 289 289 288 288 288 287 287 286 286 285 285 285 284 284 283 282 282 281 280 279 278 278 277 276 275 275 274 274 274 274 274 274 274 274 274 274 274 274 273 273 273 273 273 273 273 273 272 272 272 272
292 292 292 292 291 291 290 290 290 290 290 290 290 290 290 290 290 290 290 290 290 290 290 290 290 290 290 290 290 290 289 289 289 289 289 288 288 287 287 286 286 286 285 284 283 283 282 282 281 280 279 278 277 277 276 275 275 275 274 274 274 274 274 274 274 273 273 273 273 272 272 272 272 272 272 272 272 272 272 272 272 272 271 271 271
291 291 291 290 290 290 290 290 290 290 290 290 290 290 290 290 290 290 290 290 290 290 290 290 290 290 290 290 289 289 289 289 288 288 288 287 287 286 286 285 285 285 284 283 283 282 281 281 280 279 278 277 276 276 275 274 274 274 274 274 273 273 273 273 272 272 272 271 271 271 271 271 271 271 271 271 271 271 271 271 271 271 271 271 271
291 291 291 290 290 290 290 290 290 290 290 290 290 290 290 290 290 290 290 290 290 290 290 290 290 289 289 289 289 288 288 288 287 287 287 286 286 285 285 284 284 284 283 282 281 281 280 279 278 277 276 275 275 274 274 274 273 273 273 273 273 273 272 272 271 271 271 270 270 270 269 269 269 269 269 270 270 270 270 269 270 270 270 270 270
291 291 291 290 290 290 290 290 290 290 290 290 290 290 290 290 290 290 290 290 290 290 290 289 289 289 288 288 288 287 287 287 286 286 286 285 285 284 284 283 283 282 281 280 279 278 277 276 275 275 275 274 274 274 273 273 273 273 273 273 272 272 272 271 271 270 270 270 269 269 269 268 268 268 268 268 268 269 269 269 269 269 269 269 269
291 290 290 290 290 290 290 290 290 290 290 290 289 290 290 290 290 290 290 290 289 289 289 289 288 288 287 287 287 286 286 286 286 285 285 284 283 283 282 282 281 280 279 278 277 276 276 275 275 274 274 274 273 273 273 273 273 272 272 272 272 271 271 270 270 269 269 269 268 268 268 268 267 267 267 267 267 267 268 268 268 267 268 268 268
290 290 290 290 290 290 290 290 289 289 289 290 290 290 290 290 290 290 289 289 289 288 288 288 287 287 286 286 286 286 285 285 285 284 284 283 282 281 281 280 279 278 277 276 276 275 275 275 274 274 273 273 273 273 272 272 272 272 272 271 271 270 270 269 269 269 268 268 268 267 267 267 266 266 266 266 266 267 267 267 266 266 267 267 267
290 290 290 290 290 289 289 289 290 290 290 290 290 290 290 289 289 289 288 288 288 287 287 287 286 286 286 285 285 285 285 284 283 283 282 281 281 280 279 278 277 277 276 275 275 274 274 274 274 273 273 272 272 272 272 272 271 271 271 270 270 269 269 269 268 268 268 267 267 267 267 266 266 265 265 265 265 266 266 266 266 266 266 266 266
290 290 290 290 290 290 290 290 290 290 290 290 290 289 289 289 288 288 288 287 287 286 286 286 286 285 285 285 284 284 283 282 282 281 280 280 279 278 278 277 276 276 275 275 274 274 274 273 273 272 272 272 272 272 271 271 271 271 270 270 269 269 268 268 268 268 268 267 267 267 266 266 266 265 265 265 265 265 265 266 266 266 266 266 266
290 290 290 290 290 290 290 290 290 290 289 289 289 288 288 288 287 287 287 286 286 286 285 285 285 285 284 284 283 282 281 280 280 279 279 278 277 277 276 276 275 275 274 274 274 273 273 273 272 272 271 271 271 271 271 271 271 270 270 270 269 268 268 268 268 268 267 267 267 267 266 266 266 265 265 265 265 265 265 265 266 266 266 266 265
290 290 290 290 290 290 290 289 289 289 288 288 288 287 287 287 286 286 286 285 285 285 285 284 284 283 283 282 281 280 279 279 278 277 277 276 276 275 275 275 274 274 274 274 273 273 272 272 272 271 271 271 271 271 271 270 270 270 270 269 269 268 268 268 267 267 267 267 267 266 266 266 265 265 265 265 265 265 265 265 265 265 265 265 265
290 290 290 290 289 289 289 288 288 288 287 287 287 287 286 286 286 285 285 285 284 284 284 283 282 282 281 281 280 279 278 277 277 276 275 275 275 274 274 274 274 273 273 273 273 272 272 271 271 271 270 270 270 270 270 270 270 270 270 269 269 268 268 267 267 267 267 267 266 266 266 266 266 265 265 265 265 265 265 265 265 265 265 265 264
290 289 289 289 289 288 288 287 287 287 287 286 286 286 285 285 285 285 284 284 283 283 282 281 280 280 279 279 278 277 277 276 276 275 275 274 274 274 274 273 273 273 273 272 272 271 271 271 271 270 270 270 270 270 270 270 270 270 270 269 269 268 268 268 267 267 267 267 266 266 266 266 266 265 265 265 265 265 265 265 264 264 264 264 264
289 289 288 288 288 287 287 287 286 286 286 285 285 285 284 284 284 284 283 282 282 281 280 280 279 278 278 277 277 276 276 275 275 275 274 274 273 273 273 273 273 273 272 272 271 271 271 270 270 270 270 270 270 269 269 269 269 269 269 269 269 269 268 268 267 267 267 267 266 266 266 266 266 265 265 265 265 265 265 265 265 265 264 264 264
288 288 287 287 287 286 286 286 286 285 285 284 284 284 284 283 283 282 282 281 280 280 279 278 278 277 277 276 276 275 275 275 274 274 273 273 273 273 273 273 272 272 272 271 271 270 270 270 270 270 270 270 270 270 269 269 269 269 269 269 269 268 268 268 268 267 267 267 267 266 266 266 266 265 265 265 265 265 265 265 265 265 265 265 265
287 287 286 286 286 286 286 285 285 284 284 284 283 283 282 282 281 281 280 280 279 279 278 277 277 276 276 275 275 275 274 274 274 273 273 273 272 272 272 272 272 271 271 270 270 270 270 270 270 270 270 270 270 270 269 269 269 269 269 269 268 268 268 268 268 268 267 267 267 266 266 266 266 266 265 265 265 265 265 265 265 265 265 265 265
286 286 286 286 285 285 285 284 284 284 283 283 282 282 281 281 280 280 279 279 278 277 277 276 276 275 275 275 275 274 274 273 273 273 272 272 272 272 272 272 272 271 270 270 270 270 270 270 270 271 270 270 270 270 270 269 269 269 269 268 268 268 268 268 267 267 267 267 267 266 266 266 266 266 266 265 265 265 265 265 265 265 265 265 265
285 285 285 285 284 284 284 284 283 283 283 282 281 281 280 279 279 279 278 278 277 276 276 275 275 275 275 274 274 274 273 273 273 272 272 272 272 272 272 271 271 271 270 270 270 270 270 270 270 270 270 270 270 270 270 269 269 269 269 269 268 268 268 268 267 267 267 267 267 266 266 266 266 266 266 266 265 265 265 265 265 265 265 264 264
284 284 284 284 283 283 283 283 282 282 281 281 280 279 279 279 278 278 277 276 276 275 275 275 274 274 274 274 273 273 273 272 272 272 272 271 271 271 271 271 271 270 270 270 270 270 270 270 270 270 270 270 270 270 269 269 269 269 269 269 268 268 268 268 268 267 267 267 266 266 266 266 266 266 265 265 265 265 265 265 264 264 264 264 264
283 283 283 283 282 282 282 281 281 280 280 279 279 278 278 277 277 276 276 275 275 274 274 274 274 273 273 273 273 272 272 272 272 271 271 271 271 271 271 270 270 270 269 269 269 270 270 270 270 270 270 270 269 269 269 269 269 269 269 268 268 268 268 268 268 268 267 267 267 267 266 266 266 266 265 265 265 265 264 264 264 264 264 264 264
283 282 282 282 281 281 280 280 279 279 279 278 278 277 277 276 276 275 275 274 274 273 273 273 273 273 273 272 272 272 272 272 271 271 271 271 271 270 270 270 269 269 269 269 269 269 269 269 269 269 269 269 269 269 269 269 269 269 269 268 268 268 268 268 268 268 267 267 267 267 267 267 266 266 266 265 265 265 265 264 264 264 264 264 264
Wind_Speed
31 33 34 34 33 32 31 31 31 32 33 32 31 32 33 32 32 33 32 30 31 33 34 36 40 42 42 41 39 38 36 35 35 34 32 31 29 27 25 23 21 19 17 17 16 14 13 12 12 11 11 10 9 9 10 10 11 11 11 11 12 12 13 15 17 18 17 16 17 18 19 20 20 20 21 22 23 25 26 27 28 28 29 30 30
30 32 33 33 33 32 31 31 30 31 31 32 32 33 34 34 35 35 31 30 32 33 34 38 42 44 43 41 40 38 37 36 35 34 33 31 29 27 25 22 20 19 17 16 15 14 13 13 12 12 11 11 10 10 11 11 11 11 11 12 12 13 14 15 18 20 20 18 18 19 19 20 21 20 21 23 25 26 27 28 28 29 30 31 31
29 31 32 33 33 33 33 32 31 31 31 32 33 33 35 35 36 35 30 30 33 34 35 40 44 44 43 42 40 39 37 36 36 34 32 31 29 27 25 23 20 18 16 16 15 14 13 13 13 12 11 11 11 12 12 11 11 11 12 12 12 13 14 16 18 20 22 21 20 20 20 20 21 21 22 24 26 27 29 29 30 31 32 33 33
29 31 32 33 33 34 34 35 34 33 33 33 32 33 34 33 34 33 29 30 33 35 37 42 44 44 43 42 40 39 38 37 35 34 32 30 28 26 24 22 20 17 16 15 15 14 14 13 13 12 12 13 13 13 13 12 12 12 12 12 12 13 14 16 18 20 22 23 22 22 22 22 22 22 23 25 26 27 29 30 32 33 34 34 34
29 31 32 34 34 35 36 36 36 35 35 34 33 33 31 29 28 29 29 31 34 36 39 43 45 44 43 42 40 39 38 36 35 34 32 30 28 26 23 21 18 17 16 16 15 14 14 14 13 13 13 14 14 14 14 14 13 13 13 13 13 14 15 17 19 20 22 24 24 24 24 25 24 24 24 25 27 28 30 31 33 34 35 34 34
28 30 33 34 36 37 37 38 37 35 35 35 34 33 32 29 27 28 30 32 35 37 40 44 45 44 43 41 40 39 37 36 35 33 32 30 28 25 23 21 19 18 17 17 16 15 16 15 15 15 15 15 15 16 16 16 15 15 15 14 14 15 16 18 20 21 22 24 25 26 26 26 26 26 25 26 28 29 31 33 34 34 35 35 35
28 30 33 35 36 38 38 38 36 35 34 35 34 33 32 31 30 29 30 32 36 39 42 45 45 44 43 41 40 39 37 36 35 33 31 29 27 25 23 22 21 20 18 17 17 17 17 17 17 17 16 17 17 18 18 18 17 17 17 16 16 17 18 19 21 22 23 25 26 27 27 27 27 27 27 27 28 29 31 33 35 36 36 37 37
27 29 32 35 37 38 38 38 36 34 33 33 33 33 32 32 31 31 31 33 37 40 43 45 45 44 43 42 41 39 38 36 35 33 31 29 27 25 24 23 22 20 19 19 19 19 19 19 19 19 19 19 19 19 19 19 19 20 20 19 19 19 20 21 22 23 24 26 27 28 28 28 28 28 28 28 28 29 30 33 36 37 37 38 38
26 29 32 33 36 38 38 38 36 33 33 33 33 33 33 32 32 32 31 33 36 40 43 45 46 45 44 42 41 40 38 37 35 33 31 29 27 26 25 24 22 20 20 20 20 20 21 21 21 21 22 21 20 20 20 21 22 22 22 21 21 22 22 23 24 24 25 27 28 29 30 30 30 29 29 29 29 30 31 33 36 37 38 38 39
26 28 30 31 34 36 37 38 36 34 32 33 34 33 33 33 32 31 31 33 35 39 43 46 46 45 44 43 41 40 38 37 35 32 30 28 27 26 25 24 22 22 22 22 21 22 23 23 24 24 24 24 23 22 22 22 24 25 25 24 24 24 24 25 25 25 26 28 29 30 31 32 31 31 31 30 30 31 32 35 37 38 39 40 40
24 26 28 29 32 35 36 37 37 35 32 32 33 33 33 33 32 30 30 32 34 38 42 46 46 44 44 42 41 40 38 36 34 31 29 28 28 27 25 24 23 23 23 23 24 24 24 26 27 26 27 27 26 24 24 24 26 27 27 27 26 26 26 27 27 27 28 30 30 31 32 34 33 32 32 32 32 32 34 36 38 39 40 41 41
23 24 26 28 31 34 35 37 37 36 33 31 32 33 32 32 31 30 30 31 34 37 41 45 45 44 44 42 40 39 37 35 33 30 29 29 28 26 25 25 25 25 25 26 27 26 26 27 28 29 30 30 28 27 27 27 27 29 29 29 29 29 28 29 29 29 30 31 32 33 34 35 35 34 34 33 33 34 36 37 38 40 41 42 43
21 23 25 27 30 32 34 36 36 36 35 32 31 31 32 32 31 29 28 30 33 36 40 43 45 44 43 42 41 39 37 35 32 30 30 29 27 26 26 26 26 27 28 29 29 27 27 29 30 31 32 32 31 31 31 30 30 31 32 32 32 32 32 32 31 31 32 32 34 36 36 36 37 37 35 35 36 37 38 38 39 40 42 44 44
21 22 24 25 28 30 33 35 36 36 36 33 31 30 31 31 30 28 27 29 32 35 39 42 44 43 43 42 41 39 37 34 32 30 29 28 27 27 26 27 28 30 31 32 30 28 28 30 32 33 34 34 34 34 34 33 32 34 34 35 35 35 35 35 35 34 34 35 36 38 38 38 39 39 38 38 39 40 39 40 41 41 43 45 45
20 21 22 23 25 29 32 34 35 35 35 34 31 31 31 31 30 29 28 28 30 33 37 40 42 42 42 42 41 39 37 34 32 30 28 27 28 28 27 29 32 34 34 32 30 29 30 32 34 35 36 37 37 36 36 35 35 37 38 37 38 38 38 39 38 37 37 37 39 41 41 41 42 42 41 41 42 42 41 41 42 43 44 45 45
19 20 21 21 23 26 29 32 33 33 33 33 32 32 32 31 30 30 29 29 29 31 35 38 40 41 41 41 40 38 35 33 31 29 28 29 30 28 29 33 35 36 35 32 30 30 32 34 36 37 38 39 39 38 38 37 39 40 41 41 41 41 42 42 40 39 40 40 41 43 43 43 43 44 44 44 44 44 42 42 44 44 43 43 44
17 17 18 19 20 23 26 29 31 31 31 31 31 31 30 30 30 30 30 29 29 30 31 34 36 39 39 39 38 36 33 32 31 29 30 31 30 29 31 34 36 36 35 32 31 32 33 35 36 38 40 41 41 40 40 40 42 43 43 44 44 45 46 45 43 42 42 42 43 43 44 45 45 45 45 45 45 44 43 45 46 43 41 41 43
14 14 14 15 16 19 22 24 26 27 27 27 27 27 28 29 29 29 28 27 26 26 27 30 33 35 36 35 34 33 33 31 29 29 31 33 31 30 31 34 36 36 34 32 32 33 34 36 38 40 42 42 42 43 43 44 45 46 46 47 47 49 50 47 46 46 45 45 45 45 46 46 45 45 45 45 44 42 43 46 46 42 39 41 42
10 10 10 11 13 15 17 19 21 22 22 22 23 24 25 25 24 24 23 22 22 23 24 26 28 30 31 31 32 32 30 28 27 31 34 33 31 30 31 34 35 34 33 32 33 35 37 39 40 41 42 43 44 45 45 46 47 48 48 49 51 52 52 49 48 48 48 48 48 48 48 48 46 45 45 44 43 40 40 42 42 40 40 41 41
8 8 8 8 9 10 11 12 14 15 15 16 18 19 19 19 18 17 17 17 18 19 19 21 22 24 25 27 27 28 28 29 31 34 34 31 30 30 31 33 33 32 33 35 37 38 40 40 41 42 42 43 44 46 46 47 47 48 48 50 52 53 50 48 49 49 49 50 51 51 50 49 47 45 43 43 42 39 38 40 40 39 39 40 39
10 10 10 10 9 9 9 9 9 10 11 12 13 13 13 13 12 12 12 12 12 13 14 15 17 18 20 22 25 28 31 33 35 33 31 29 28 29 30 31 32 33 36 38 39 41 41 41 42 42 42 42 43 43 43 44 44 45 47 48 49 49 48 47 48 48 49 49 50 49 49 47 46 44 41 40 39 37 36 36 36 36 37 37 36
14 14 14 14 13 13 12 12 11 11 11 11 11 11 11 11 11 11 10 10 10 11 12 14 15 17 20 23 26 29 31 31 30 27 26 26 26 27 29 30 31 33 36 38 40 41 41 41 41 40 40 40 39 39 40 40 40 42 44 45 46 45 43 43 44 44 45 46 45 45 45 45 44 44 42 40 39 37 35 34 33 34 34 33 33
17 17 17 17 17 17 16 15 15 14 13 12 12 11 11 11 10 10 9 9 9 10 11 13 15 17 20 22 24 25 25 24 24 22 22 23 24 25 27 28 30 32 35 38 39 39 39 39 38 38 38 38 38 38 38 39 40 41 42 41 39 36 34 34 35 37 39 40 41 42 43 43 44 44 42 41 41 39 37 35 34 33 32 32 33
20 20 20 20 20 19 19 18 17 16 15 14 12 12 11 10 9 9 9 8 9 10 12 14 15 17 19 19 20 20 19 19 20 20 20 21 22 23 25 27 28 30 33 36 37 36 36 36 36 36 37 37 38 38 39 38 38 37 35 33 30 29 29 30 31 32 34 36 38 39 40 41 42 42 42 42 41 40 39 37 35 33 33 33 34
22 22 22 22 22 21 21 20 19 18 17 16 14 14 13 13 12 11 11 11 12 12 13 14 15 15 15 15 15 16 16 17 17 18 19 20 21 22 24 26 27 29 31 33 34 33 34 34 35 36 36 37 37 37 38 37 35 33 31 29 27 27 28 30 30 31 32 34 34 34 35 35 36 38 39 40 40 39 39 38 37 34 33 33 33
24 24 24 23 23 22 22 21 20 19 19 18 16 15 14 13 13 13 12 13 13 13 13 13 13 13 13 13 14 15 15 16 16 18 19 20 21 22 24 25 26 27 29 30 30 31 31 32 34 35 35 36 36 36 36 36 35 35 33 30 28 28 29 29 29 29 29 29 29 29 29 29 29 30 32 34 35 35 36 36 35 33 32 32 33
23 23 23 23 22 22 21 21 20 20 19 18 17 16 15 14 13 13 12 12 12 12 12 12 11 11 11 11 12 13 13 14 15 16 18 19 20 21 22 23 24 25 26 26 27 28 29 30 31 32 32 33 33 33 34 34 34 33 31 29 27 26 26 25 24 24 25 27 27 28 28 27 27 28 29 30 32 32 33 34 34 32 31 31 33
21 21 21 21 20 20 19 18 18 17 17 16 15 14 13 13 12 12 11 11 11 10 10 9 9 9 9 9 10 11 12 13 14 15 16 17 18 19 20 21 22 23 23 24 24 25 26 27 27 28 28 29 29 30 30 30 29 28 27 25 23 22 21 20 19 20 21 23 24 25 25 25 26 27 28 30 31 31 31 33 34 33 32 32 33
19 19 19 18 18 18 17 16 15 14 14 15 15 14 14 13 12 12 11 11 10 9 8 7 7 7 8 9 10 10 11 12 13 14 16 17 18 19 20 21 21 22 22 22 23 24 24 25 25 25 25 26 26 26 26 26 26 25 25 24 23 23 23 22 22 22 22 22 23 24 25 26 27 27 28 28 29 29 30 32 34 34 33 33 32
18 17 17 17 16 16 16 16 16 16 15 16 16 16 15 14 13 11 10 9 8 7 7 7 7 7 8 9 10 11 12 13 14 16 17 18 19 21 21 22 23 23 23 23 23 24 24 25 25 25 25 26 26 26 26 26 26 26 26 25 25 25 25 25 25 26 26 26 26 27 28 29 30 30 29 29 29 29 29 30 33 34 34 33 31
17 17 17 17 17 17 17 18 18 18 17 16 15 14 13 12 11 10 9 8 7 7 6 6 7 7 8 10 11 12 13 15 16 18 19 20 21 21 22 23 24 24 23 22 22 24 25 26 26 26 26 26 27 27 27 27 27 27 28 27 26 26 27 27 27 28 28 28 29 29 30 31 31 32 32 32 32 31 30 29 30 31 32 32 30
16 18 18 18 18 18 18 17 17 16 16 15 13 12 11 11 10 10 9 7 7 6 6 7 8 9 11 12 13 14 16 17 18 19 19 20 20 20 21 22 23 22 21 20 21 22 23 24 24 25 25 25 26 26 26 26 27 27 28 28 29 29 29 30 30 31 31 31 31 31 31 31 31 31 32 32 32 32 31 30 29 29 31 30 28
14 16 16 17 17 17 16 15 15 14 14 13 13 12 11 9 8 8 7 7 7 8 8 9 10 11 12 13 14 15 17 17 18 18 19 19 19 19 19 20 22 22 21 20 20 21 21 21 22 23 24 24 25 25 25 26 27 27 28 30 31 32 32 33 33 33 33 32 32 32 32 32 31 30 30 30 30 30 30 29 27 27 28 27 26
14 14 14 15 15 15 15 15 14 14 14 13 12 11 9 8 7 7 7 8 9 9 10 11 12 12 13 14 15 16 16 17 17 18 18 17 18 18 19 19 21 22 21 21 20 20 20 20 21 21 22 22 23 24 24 25 26 27 27 29 30 31 31 31 31 31 30 29 29 29 29 29 29 29 29 29 27 27 26 25 24 23 24 24 24
15 15 15 15 14 14 14 14 14 13 12 12 10 9 8 7 7 8 9 10 10 11 11 12 12 13 13 14 15 15 16 16 17 17 17 17 17 18 19 19 19 20 20 20 20 20 20 20 20 20 20 21 21 22 23 24 25 26 26 27 28 29 29 29 28 27 27 26 26 25 25 25 26 26 27 28 27 25 24 23 22 21 21 21 21
15 14 14 14 14 13 13 13 13 12 11 10 9 9 9 9 9 10 10 10 11 11 11 12 12 12 13 13 14 15 15 16 17 17 17 17 17 18 18 18 19 19 19 19 19 19 19 19 18 19 19 20 21 22 23 23 24 25 25 26 26 26 26 25 24 24 23 23 23 23 23 23 22 22 24 26 25 24 22 20 19 19 19 19 19
13 12 12 12 13 13 13 12 12 11 10 10 10 10 10 10 10 10 10 10 11 11 11 11 11 12 12 13 14 14 15 16 17 17 18 18 18 18 18 19 19 19 19 18 18 17 18 18 18 19 20 20 20 21 21 22 23 23 23 23 23 23 22 22 21 21 22 21 21 21 21 21 20 20 22 23 23 21 19 16 16 16 17 17 17
12 12 12 12 12 13 12 12 11 11 11 11 11 11 11 11 10 10 10 10 10 10 10 10 11 11 12 13 14 15 16 16 16 17 17 18 18 19 19 20 20 19 18 17 17 16 17 18 18 19 20 19 19 20 20 21 21 21 21 21 20 20 20 19 19 20 20 20 20 19 19 20 19 19 20 21 21 19 17 15 14 15 15 16 16
13 13 13 13 13 12 12 12 11 11 11 11 11 11 10 10 9 9 9 9 9 10 10 10 11 12 13 14 14 15 15 16 16 17 18 19 19 20 20 19 19 19 18 17 17 17 17 18 18 19 18 18 18 18 19 19 19 19 19 19 18 18 18 18 19 19 19 19 19 18 18 18 18 17 18 18 19 19 18 17 17 16 16 16 16
13 13 13 13 13 13 13 12 12 12 12 11 10 10 9 9 9 9 9 9 9 10 11 12 13 14 15 14 14 14 15 16 17 18 18 19 19 19 18 18 18 18 17 17 17 17 18 18 18 18 17 17 17 17 18 18 18 18 18 18 18 17 17 18 18 19 18 18 18 17 17 17 17 16 15 15 16 18 18 19 19 19 18 17 17
13 13 13 13 13 13 13 13 13 12 11 10 9 9 9 9 9 9 9 9 10 11 12 13 14 15 15 14 13 13 15 17 17 17 18 18 18 17 17 17 17 17 17 17 17 17 18 17 17 17 17 16 16 17 17 17 17 17 16 16 16 16 16 17 18 18 17 17 16 16 16 16 16 16 15 14 13 14 15 16 17 17 17 16 16
14 14 14 14 14 14 13 12 12 11 10 9 9 9 9 9 9 10 10 11 12 12 13 13 14 14 15 15 15 15 16 16 17 17 17 16 16 16 16 16 16 16 17 17 17 17 17 16 16 16 16 16 16 16 16 17 17 16 16 15 15 15 15 16 16 17 16 15 15 15 15 15 15 15 14 12 11 11 11 12 13 14 14 14 15
15 15 14 14 14 13 12 12 11 10 10 10 10 10 10 10 10 11 11 12 12 13 13 13 14 14 15 16 16 16 16 16 16 16 16 16 16 16 16 15 16 16 17 17 17 17 16 15 15 15 15 15 15 15 16 16 17 16 16 16 15 15 15 15 15 15 15 14 14 14 14 14 13 13 13 12 11 11 11 11 11 12 13 14 15
15 15 14 14 13 12 12 11 11 11 10 10 10 11 11 11 12 12 12 12 12 13 13 14 14 15 16 16 17 17 17 17 16 16 16 15 15 15 15 16 16 16 17 17 17 17 16 15 15 14 14 15 15 15 15 16 17 17 17 16 16 15 15 14 14 15 15 14 13 13 12 12 12 12 12 12 12 11 11 12 12 13 14 15 16
15 14 14 13 12 12 12 12 11 11 11 11 11 12 12 12 13 13 13 13 13 13 14 14 15 15 16 16 17 17 17 17 16 16 16 15 15 15 16 16 16 16 17 17 17 17 16 15 15 14 14 14 15 15 15 16 17 17 17 17 16 16 15 14 14 14 14 15 14 13 12 12 12 12 12 12 13 13 13 13 14 15 15 16 17
14 14 14 13 13 13 13 13 13 12 12 12 12 13 13 13 13 13 13 13 13 14 15 15 15 16 16 16 17 17 17 17 16 16 16 16 16 16 16 16 17 17 16 17 17 17 16 16 15 15 14 14 14 15 15 16 17 17 18 18 17 17 16 15 14 13 14 15 15 14 13 12 12 12 13 13 14 14 14 15 15 16 17 17 18
14 14 14 13 13 14 14 14 13 13 13 13 13 13 13 13 13 13 14 14 14 15 16 16 16 17 17 17 17 18 17 17 17 16 16 16 17 17 17 17 17 17 17 16 17 17 17 17 16 16 15 15 15 15 16 16 17 17 18 18 18 17 17 16 15 14 14 15 15 15 15 14 13 13 13 14 15 15 15 16 16 16 17 17 17
14 14 13 13 13 14 14 14 14 14 14 14 14 14 14 14 14 15 15 15 16 16 17 17 17 18 18 18 18 18 18 18 17 17 17 17 17 18 18 18 18 18 17 16 16 17 17 17 17 17 17 17 17 17 17 17 17 18 18 18 18 18 18 17 16 15 14 14 15 16 16 15 14 14 14 14 15 15 16 16 16 16 17 17 17
13 13 13 13 13 14 14 15 15 15 15 15 15 15 15 16 16 16 16 17 17 17 18 18 18 18 18 18 18 18 18 18 18 17 17 18 18 19 19 19 19 18 17 17 16 17 17 17 17 18 18 18 19 18 18 18 18 18 18 18 19 19 18 18 17 15 15 14 15 16 16 16 15 14 14 14 15 15 15 15 15 16 16 15 15
13 13 13 13 14 14 14 15 15 15 15 15 16 16 16 17 17 17 17 17 17 18 18 18 19 19 19 19 19 19 19 19 19 18 18 19 19 20 20 20 20 19 18 17 17 17 18 18 18 19 19 20 20 19 19 18 18 18 18 18 18 18 19 18 17 16 16 15 15 15 15 15 14 14 13 14 14 14 14 14 14 14 14 14 14
13 13 13 14 14 14 15 15 15 16 16 16 17 17 18 18 18 18 18 18 18 18 19 19 19 19 19 20 20 20 20 20 20 20 20 20 20 21 21 21 21 20 19 18 18 18 18 19 19 19 20 20 20 20 19 19 18 18 17 17 18 18 18 18 17 17 16 16 15 15 15 15 14 14 13 13 14 14 14 14 14 14 14 14 14
Wind_Direction
240 237 235 233 231 230 228 227 227 227 230 231 229 226 224 225 230 238 242 239 227 220 219 217 210 204 201 201 201 202 204 203 202 201 200 199 200 202 204 204 205 207 210 215 220 225 232 240 250 256 260 262 265 271 276 276 276 274 276 278 280 281 279 279 284 290 294 294 294 293 292 293 294 294 294 294 294 294 294 295 296 298 300 301 302
242 238 236 233 232 231 229 229 228 228 229 229 226 226 225 227 236 241 238 229 222 218 218 214 208 205 203 202 203 204 205 205 204 203 202 202 203 205 207 209 210 212 215 221 227 233 239 245 253 256 259 262 265 270 276 278 279 279 280 281 281 282 282 284 287 291 293 294 293 292 292 293 294 295 296 295 295 295 295 297 298 299 300 301 302
244 241 238 235 233 231 230 230 230 229 230 229 227 227 228 233 242 242 232 224 220 217 215 212 208 206 204 204 205 206 207 207 206 206 205 206 207 209 211 212 214 217 221 227 233 239 245 250 254 257 260 262 265 269 273 277 280 282 282 281 283 284 285 287 288 290 293 294 295 295 294 293 295 297 297 297 297 298 299 301 302 302 302 302 304
246 242 238 236 233 231 231 232 231 230 229 230 230 230 234 241 243 237 230 225 219 216 214 211 209 207 206 206 207 207 208 208 208 209 208 209 212 214 216 216 219 222 226 233 238 244 250 254 257 260 262 264 267 270 273 276 279 281 282 283 284 285 285 287 288 290 293 294 296 297 296 297 298 299 299 299 300 301 303 304 303 302 302 303 305
248 244 240 237 234 233 233 234 233 231 228 229 232 233 238 244 239 232 231 227 219 216 214 210 209 209 208 208 209 209 210 210 211 211 211 213 215 217 220 222 225 228 232 235 239 246 253 257 260 263 265 268 271 272 274 275 276 279 281 282 282 283 284 286 289 290 292 294 297 297 298 299 300 301 303 303 304 305 305 304 303 303 303 304 305
249 246 242 239 237 236 236 235 235 233 229 228 231 233 237 242 239 235 235 228 220 216 213 211 211 211 210 211 211 212 212 212 213 214 215 216 217 219 222 225 228 232 235 238 243 250 255 258 262 266 268 272 274 275 274 274 275 278 280 281 281 282 285 287 288 289 290 293 296 297 299 300 301 303 305 306 306 307 307 305 303 303 304 305 306
250 247 244 241 240 240 239 238 239 237 231 228 230 233 236 239 241 240 237 230 222 216 213 213 212 212 213 213 214 215 215 215 216 217 218 219 221 224 226 229 231 233 237 242 249 253 256 261 266 269 271 274 276 276 274 273 276 279 280 281 282 284 286 288 288 289 290 292 294 296 298 300 301 304 305 306 307 308 308 305 304 305 306 307 307
251 248 245 242 241 241 241 241 242 240 234 230 229 232 234 238 240 240 236 231 223 217 214 214 214 214 215 215 216 217 216 217 218 218 220 222 224 228 231 233 235 237 243 249 252 255 260 265 268 270 273 277 279 276 273 274 277 280 282 282 284 285 287 289 289 290 291 292 293 295 297 298 300 302 303 305 307 307 307 305 304 305 306 306 306
254 250 247 245 243 242 242 243 243 240 235 230 229 230 233 236 239 239 236 230 224 218 215 215 216 216 216 216 217 218 218 219 220 221 223 224 227 231 234 236 239 243 249 250 253 259 264 265 267 272 276 278 279 276 273 275 280 282 283 283 283 285 288 289 290 292 293 293 294 295 296 297 298 300 301 304 306 306 305 304 303 304 305 305 305
256 252 250 248 245 243 242 242 243 241 235 230 229 229 232 235 238 238 236 231 225 220 217 217 218 218 219 219 219 219 220 221 222 223 225 228 232 235 236 239 244 248 250 251 256 263 266 266 268 272 275 277 276 274 273 276 281 283 282 282 283 285 287 289 290 292 294 294 296 297 296 296 297 298 300 302 303 303 303 303 302 303 304 304 304
259 256 254 250 245 243 242 241 242 241 236 231 228 229 231 235 237 238 236 232 227 222 220 219 219 220 222 222 222 222 223 223 223 224 227 232 234 235 239 244 248 250 251 252 259 266 267 267 268 270 274 276 275 272 271 275 281 283 281 280 283 284 285 288 290 293 294 295 297 298 297 296 298 299 299 300 301 301 300 300 300 302 302 302 303
260 257 254 250 246 244 242 240 240 240 237 232 229 228 230 234 237 237 236 232 227 223 222 222 222 223 224 225 226 226 226 226 225 227 232 235 234 236 244 249 249 250 250 254 262 268 268 266 266 269 274 277 274 270 269 273 280 283 280 279 281 282 284 287 289 292 294 295 297 298 298 299 299 299 299 300 300 298 297 298 298 299 300 299 301
257 255 252 249 246 244 242 240 239 238 236 234 231 229 231 235 237 236 235 232 227 224 223 223 224 225 226 227 228 229 229 228 228 231 236 235 235 242 249 251 249 249 253 260 267 270 267 265 267 271 275 277 274 271 270 272 278 282 279 277 279 282 285 287 288 291 292 293 295 297 299 299 299 299 300 299 297 295 295 296 296 296 296 296 298
252 252 250 248 246 243 242 240 238 236 236 235 233 232 232 235 238 237 235 232 228 225 224 224 225 226 228 229 230 231 231 230 230 234 235 234 239 247 251 249 249 252 259 265 269 269 267 266 269 273 276 276 274 273 271 271 276 280 277 275 278 282 284 286 288 291 292 293 296 297 298 299 299 299 299 297 294 293 293 293 292 292 292 293 296
250 250 249 248 245 243 241 239 237 236 235 234 234 233 233 235 237 237 235 233 231 228 227 226 227 229 230 231 232 232 232 231 233 234 233 237 245 249 248 248 252 260 266 268 268 269 268 268 271 274 276 275 274 273 272 272 275 277 275 275 277 280 282 284 286 290 292 293 295 297 298 299 299 298 297 295 293 293 292 291 290 289 289 291 294
247 247 247 246 243 241 240 238 237 236 234 233 233 234 235 235 237 238 237 236 235 232 230 229 229 230 231 232 233 233 232 233 234 233 235 244 250 249 248 252 259 266 268 268 269 271 270 271 274 276 276 275 274 273 272 273 274 275 275 276 278 279 280 282 284 287 289 290 292 294 295 296 295 294 294 293 291 291 290 287 286 286 287 290 293
244 245 245 244 242 241 240 238 237 236 235 233 233 235 238 238 238 239 239 239 238 237 236 234 233 233 233 233 233 234 235 235 232 232 242 251 251 248 252 259 265 269 269 270 271 272 273 274 276 276 276 275 275 274 273 273 274 274 275 276 278 279 281 282 284 285 287 287 288 290 291 291 291 290 290 289 289 289 287 285 285 285 285 286 288
240 240 239 239 239 239 239 238 238 237 236 235 234 235 238 240 241 241 242 244 244 244 243 240 237 236 234 234 234 235 234 230 229 240 252 255 250 249 256 264 269 270 271 272 273 273 275 276 276 276 276 276 276 275 274 273 274 275 275 276 278 279 281 283 285 286 286 286 286 287 287 287 287 287 286 286 285 284 282 283 284 284 282 282 284
224 223 224 228 231 235 236 236 236 236 236 235 233 234 237 241 244 244 244 245 245 245 244 242 239 237 235 234 233 232 228 228 238 253 259 254 249 251 260 267 270 271 273 275 276 276 277 277 276 276 276 276 276 276 275 274 274 275 276 277 277 279 282 285 286 286 286 285 285 286 286 287 286 285 284 283 281 277 275 276 279 279 278 279 281
192 189 191 198 207 215 221 224 226 227 228 229 230 232 235 237 240 241 240 240 240 241 241 239 237 235 234 232 230 228 229 237 250 259 259 254 252 256 263 268 270 272 276 278 279 279 278 277 276 276 276 277 277 278 278 277 277 277 277 277 277 279 283 285 284 284 284 285 285 286 286 286 286 284 283 282 280 277 274 275 277 277 276 276 276
159 157 155 157 161 166 174 181 189 196 202 210 216 220 223 224 226 227 227 227 229 231 231 232 232 232 233 234 235 236 241 248 256 260 259 257 257 260 264 267 270 275 278 278 278 278 277 276 277 277 279 279 279 280 280 279 280 279 278 278 279 282 284 284 283 283 284 284 285 286 286 287 287 288 288 287 286 285 282 281 282 281 278 276 275
141 140 140 141 142 144 148 153 159 167 174 182 188 191 193 195 197 200 203 208 213 216 220 224 228 232 236 238 241 244 247 252 255 255 255 256 259 261 265 268 272 275 276 276 275 276 277 278 280 281 281 281 280 280 279 279 279 279 279 280 282 284 284 284 285 286 287 288 289 290 291 292 293 295 295 295 295 294 291 289 288 286 282 278 275
135 135 135 136 137 138 141 144 148 152 157 162 168 172 176 179 184 189 194 200 207 213 219 225 229 234 237 238 241 243 245 248 250 250 252 255 258 262 266 269 272 273 273 273 274 275 277 279 281 281 281 281 280 280 280 279 279 279 280 280 281 281 280 280 280 281 283 286 288 290 291 293 295 296 298 299 298 296 294 293 293 288 281 275 272
133 134 135 136 136 137 139 140 142 144 145 148 151 153 156 157 160 166 172 183 196 206 217 225 230 234 237 239 242 246 248 251 254 255 257 258 260 263 265 267 269 269 270 271 273 275 277 279 280 281 281 281 281 281 281 281 281 281 281 280 279 277 275 274 275 276 277 280 283 285 288 291 292 294 296 297 296 294 294 295 294 287 277 272 269
135 135 135 136 136 137 138 139 140 139 140 141 144 146 150 154 161 170 180 192 204 214 221 228 234 238 243 247 251 254 255 255 256 257 258 258 259 261 262 263 265 266 268 270 273 276 278 279 280 280 280 281 281 282 283 283 284 283 282 280 277 274 273 273 275 277 278 279 280 283 286 289 290 291 293 294 293 293 294 295 292 285 277 270 268
138 138 139 139 139 140 141 143 145 147 150 153 158 163 169 175 182 191 199 206 214 220 225 230 236 239 242 245 247 248 249 250 251 253 256 258 259 260 262 264 265 267 270 272 275 277 277 278 278 279 280 281 282 283 284 285 285 284 284 283 280 278 278 280 283 285 285 285 286 288 291 292 292 292 292 293 293 293 295 295 291 284 276 271 270
142 143 144 144 146 148 150 152 155 159 163 168 173 180 185 189 194 199 204 207 211 214 217 221 224 227 229 232 236 241 246 250 254 256 260 263 265 267 269 271 272 273 274 275 276 275 276 276 277 278 280 281 281 282 283 284 285 286 288 288 287 285 283 284 286 287 288 288 288 290 293 295 293 293 293 293 293 293 295 294 291 285 278 275 276
149 150 151 154 156 158 161 164 167 169 172 176 180 184 186 187 188 191 191 192 193 195 198 202 208 215 224 233 241 249 256 261 265 269 272 275 277 278 280 280 280 281 281 281 280 279 279 279 278 279 279 280 280 281 281 282 284 286 287 289 291 291 291 291 291 289 288 288 290 293 296 296 295 295 294 293 292 293 294 293 289 285 280 278 281
159 160 161 163 165 165 167 169 170 171 173 173 173 172 172 170 170 171 173 174 177 183 191 202 216 228 239 249 257 264 271 275 277 280 282 284 286 286 287 287 288 288 287 286 285 283 283 282 282 282 283 283 283 283 284 284 285 286 288 291 294 297 300 302 302 300 298 296 295 295 295 295 294 293 292 291 292 294 294 293 288 284 280 280 283
163 164 164 165 166 166 165 164 164 164 164 164 164 162 160 159 161 165 172 177 184 195 207 219 233 245 254 265 272 277 282 286 287 287 288 289 289 290 290 291 290 290 289 288 289 289 288 290 291 292 292 293 293 293 294 295 296 298 300 304 305 306 307 306 304 303 301 298 295 294 294 292 290 289 288 288 288 290 292 292 289 284 281 280 283
159 159 159 159 159 160 159 158 158 159 158 158 159 159 160 163 167 173 182 192 200 210 222 235 251 263 271 278 283 286 287 287 287 287 288 288 290 291 292 293 292 292 294 295 296 295 296 296 297 298 299 300 301 302 304 306 307 307 309 310 311 309 308 307 304 302 301 299 297 295 294 291 289 287 287 286 285 285 286 287 287 284 281 279 281
156 154 155 157 156 157 159 158 158 159 160 161 164 168 173 177 179 184 190 201 217 233 248 261 270 275 279 282 284 284 284 284 285 287 288 290 293 294 294 294 293 294 297 297 295 294 294 294 295 296 298 300 301 303 304 306 306 307 307 307 306 304 303 302 300 299 299 299 297 296 294 292 290 288 286 285 284 283 283 283 284 284 280 277 278
159 157 158 160 161 161 163 164 165 167 169 172 174 177 182 188 196 203 210 222 239 251 260 266 271 274 277 279 281 282 283 285 287 289 291 293 295 295 294 293 293 294 296 295 293 291 291 290 292 294 295 296 298 299 301 301 301 301 302 301 301 301 300 300 299 299 299 298 296 295 293 291 290 289 287 285 283 282 283 284 284 284 281 278 278
166 166 165 167 170 171 171 174 176 177 178 180 183 186 192 203 219 233 242 247 252 258 262 265 269 272 275 278 281 283 285 288 289 291 293 294 294 294 293 292 293 294 295 295 295 295 295 294 295 296 296 297 299 300 300 300 301 302 303 303 303 303 303 304 305 305 304 303 302 300 298 294 291 289 288 287 285 283 284 285 286 286 283 280 279
173 176 175 175 178 179 180 181 183 185 187 190 194 203 214 226 236 243 249 251 253 256 260 263 267 270 272 275 278 281 284 288 290 292 294 294 294 293 292 292 292 293 294 295 296 297 297 297 298 298 298 299 300 300 301 302 304 305 306 306 306 307 308 310 311 310 310 311 311 310 308 304 299 292 287 286 285 284 285 286 288 287 283 280 279
181 184 184 185 186 187 189 190 191 195 200 205 212 223 231 237 241 243 246 250 252 256 259 262 264 267 269 272 276 280 284 288 291 293 294 294 293 293 293 292 293 293 293 294 295 295 296 297 297 297 298 299 300 301 303 304 305 307 308 309 311 312 313 314 315 316 317 318 318 318 316 312 307 300 293 289 287 286 285 286 288 287 284 282 283
191 194 196 196 196 197 200 201 202 207 213 218 226 231 233 235 238 240 243 248 251 254 257 260 262 266 271 275 279 284 287 290 291 293 293 293 292 292 293 293 293 294 294 295 295 295 296 296 297 297 298 300 301 302 304 305 306 309 312 314 315 316 317 319 320 322 322 323 324 323 321 317 312 307 302 298 294 291 288 287 288 289 288 287 288
200 203 205 206 206 207 209 211 214 217 220 223 225 227 229 232 235 239 243 248 251 253 258 262 267 271 276 279 283 286 288 290 290 290 290 291 291 292 292 293 294 295 295 295 295 295 296 296 297 299 300 301 303 304 305 307 309 313 316 318 320 321 322 323 324 323 324 325 326 324 321 318 313 307 304 303 302 300 298 294 292 291 291 291 291
206 207 208 209 210 211 213 216 218 219 220 221 222 223 227 232 236 240 245 249 254 259 264 269 274 277 279 281 283 285 286 286 286 286 288 289 291 292 293 294 295 295 296 296 296 297 298 299 299 300 301 302 303 304 305 307 311 316 320 321 323 325 326 325 324 324 325 327 328 327 323 320 316 309 304 302 302 303 303 301 298 296 294 293 292
209 209 209 210 211 213 214 215 216 216 217 219 220 223 229 234 238 243 249 254 260 266 271 274 276 277 277 278 280 282 282 282 283 286 288 289 290 291 292 293 294 294 294 295 297 298 299 299 299 299 301 302 303 304 305 307 311 316 321 323 325 328 329 327 325 326 329 330 331 330 327 323 318 314 309 305 302 300 300 299 298 297 295 295 293
210 210 211 211 211 212 213 213 214 215 216 219 224 228 233 238 242 248 254 260 265 269 271 272 272 272 273 276 277 277 278 280 283 285 287 288 289 290 291 291 291 292 294 296 298 299 299 299 298 299 300 301 302 303 304 305 309 314 319 323 326 327 328 327 326 326 329 332 333 332 330 326 322 318 317 315 312 308 304 300 299 297 296 295 294
209 209 211 211 211 212 214 214 215 217 220 224 229 233 237 243 249 254 259 262 264 265 265 265 266 268 272 277 279 278 279 281 284 285 286 287 288 289 289 289 290 292 294 297 298 298 298 298 298 298 299 300 300 301 302 304 308 312 317 320 323 324 324 325 325 326 328 331 332 331 331 330 328 325 324 325 325 322 316 309 303 299 298 297 296
210 209 211 212 212 213 214 215 218 222 225 228 233 238 244 250 254 256 257 257 257 257 258 260 264 268 273 277 280 281 282 284 285 286 287 287 287 287 288 289 291 294 296 297 298 298 297 296 295 296 297 298 298 300 302 304 307 311 315 317 319 320 320 321 323 324 325 326 326 327 329 331 331 330 329 329 329 327 322 315 308 304 301 299 298
211 211 212 213 214 215 217 219 222 225 228 233 240 246 249 251 251 250 250 250 251 254 257 261 266 270 274 277 280 282 283 285 286 286 286 285 285 286 288 290 294 296 298 298 297 296 295 294 293 294 295 297 298 300 302 305 307 310 313 314 315 316 316 317 319 321 322 321 320 319 322 325 326 326 325 324 323 321 318 313 308 304 300 298 297
213 213 215 216 217 218 220 221 223 227 234 242 246 247 247 246 245 245 247 249 252 257 261 266 269 273 276 278 281 283 284 285 285 285 284 283 284 285 288 291 294 295 296 296 295 295 294 293 293 293 294 295 297 300 301 304 306 307 309 310 312 312 312 312 314 317 318 317 315 314 314 315 315 316 315 314 312 311 310 307 304 302 300 300 300
216 217 218 219 220 221 222 224 227 234 242 247 247 246 245 245 246 248 251 255 260 264 268 271 274 276 278 281 283 284 284 284 283 283 282 281 283 285 288 290 293 293 293 293 292 292 292 292 292 293 293 293 295 297 299 300 302 304 305 306 307 308 308 308 310 313 313 312 311 310 309 308 307 307 306 305 304 304 304 303 303 302 301 301 301
220 221 222 224 225 226 227 229 234 242 248 250 250 250 250 251 253 256 259 263 267 271 272 275 277 278 281 283 283 283 284 283 282 281 281 281 283 286 288 290 291 291 291 290 289 288 289 289 290 291 292 292 292 294 295 296 297 299 300 301 302 304 304 304 305 308 309 309 308 306 306 306 305 304 303 302 302 302 302 301 302 301 300 299 300
223 224 227 228 229 230 233 237 242 248 252 254 254 254 255 257 260 263 266 269 272 273 275 277 278 280 281 282 282 282 282 281 280 280 281 282 284 286 288 289 290 290 289 288 287 286 286 286 287 288 290 292 293 293 293 293 293 294 295 296 298 299 301 301 302 304 304 305 305 304 303 304 304 303 302 301 301 301 301 301 301 301 300 299 300
227 228 231 233 235 238 241 245 249 252 254 255 256 257 259 262 265 267 269 271 273 274 276 277 278 279 280 280 280 281 280 280 280 281 282 283 285 286 287 288 289 289 288 285 284 283 283 284 285 287 289 291 293 293 292 292 291 290 291 291 292 294 295 296 297 299 300 301 302 302 302 304 304 304 303 303 302 302 303 303 302 301 301 300 300
232 235 238 241 244 246 249 251 252 254 255 256 258 261 263 265 267 269 271 273 274 275 276 277 278 279 280 280 280 281 280 281 281 282 282 284 285 286 286 287 287 287 286 284 280 280 281 281 282 285 288 291 292 293 292 291 290 289 289 289 288 289 290 291 293 295 296 296 297 298 299 301 304 304 305 305 304 303 304 303 302 301 301 299 298
240 243 246 249 251 252 253 254 255 257 259 261 263 265 267 268 270 272 273 275 275 276 276 277 278 279 280 280 280 280 280 281 282 282 284 285 285 285 286 286 285 284 284 282 279 277 278 279 281 284 287 290 291 291 291 290 289 288 288 287 286 286 288 289 291 292 293 293 295 297 298 299 301 302 303 304 303 303 303 302 301 300 299 298 297